Wind_Speed
29 30 30 31 31 32 33 34 35 36 37 38 40 41 43 44 46 48 49 51 53 55 58 60 62 64 65 65 65 65 65 65 65 65 66 65 64 63 61 60 59 58 58 57 57 57 57 57 57 55 55 54 54 54 52 53 54 55 57 59 61 60 59 58 58 56 50 44 38 38 40 39 40 39 39 40 40 41 39 39 38 38 38 36 35 34 32 31
29 30 31 31 32 32 33 34 34 35 36 37 39 40 41 43 45 47 49 51 53 54 56 58 60 63 65 67 68 68 68 67 67 67 67 66 66 66 64 62 61 59 58 58 58 58 58 58 58 57 56 56 55 54 53 53 53 54 55 58 58 57 57 57 59 55 47 44 39 41 44 41 43 44 42 40 41 42 40 40 39 39 38 37 36 35 34 33
29 30 31 32 32 33 33 34 34 35 35 36 37 38 39 40 42 44 46 49 51 54 56 58 59 60 62 65 67 70 71 71 71 70 68 67 67 68 67 65 63 62 60 59 58 59 59 58 58 58 58 58 57 56 55 54 53 53 54 57 55 54 55 57 57 51 47 46 42 44 46 43 46 47 45 42 42 44 42 42 41 40 40 39 38 37 36 35
29 30 31 32 33 33 33 34 34 34 35 35 35 36 37 38 39 41 43 45 48 51 53 56 59 60 62 63 64 67 70 72 74 73 72 70 69 68 68 67 65 64 63 61 59 59 59 59 58 58 59 60 59 58 57 55 54 53 55 55 52 50 53 55 51 47 47 45 43 46 46 47 50 50 47 45 46 45 44 46 45 41 40 40 39 38 38 37
30 31 32 32 32 33 33 32 33 33 33 33 34 35 35 36 37 39 40 42 45 47 50 52 56 59 62 63 64 65 67 69 72 74 75 74 72 70 69 68 67 66 65 64 61 60 60 59 59 59 60 60 60 60 58 57 54 54 55 52 50 50 51 51 45 42 44 43 43 46 47 50 55 53 49 50 49 46 49 52 47 43 42 41 40 39 39 38
31 31 32 32 32 32 31 31 31 31 31 32 33 33 34 36 38 39 41 42 44 45 47 49 52 55 58 62 64 65 65 67 70 71 73 76 75 74 71 69 68 68 68 66 64 62 61 60 60 60 60 60 61 60 58 58 56 55 55 50 50 52 49 46 42 38 40 41 41 44 48 53 56 55 53 54 52 50 54 54 48 46 45 43 43 41 40 39
31 31 31 30 30 29 29 28 28 29 29 30 31 32 34 36 38 40 42 44 45 47 48 49 50 52 55 58 61 64 65 66 69 70 70 73 75 77 75 72 69 68 69 68 66 65 63 61 60 59 60 60 60 59 58 59 57 56 55 52 52 52 46 43 40 37 38 38 39 43 47 52 55 56 57 56 54 54 56 55 52 51 48 46 45 44 43 43
31 30 29 28 28 27 27 26 27 27 29 30 31 32 34 36 39 40 42 44 46 48 49 50 51 52 54 56 58 61 63 65 69 71 70 70 72 75 76 76 72 70 70 69 68 67 65 63 61 59 59 60 60 58 58 59 58 56 56 55 54 51 45 43 40 38 37 37 38 41 44 49 52 55 57 56 55 57 57 56 56 54 52 50 49 48 46 45
30 29 28 27 26 26 25 25 26 28 30 32 33 34 36 38 40 42 43 45 47 50 51 52 52 52 53 54 57 58 60 64 69 71 71 69 70 72 74 76 75 73 71 70 70 68 67 65 62 60 59 60 60 59 58 57 57 56 56 57 54 50 46 44 43 39 38 38 37 39 41 44 47 51 53 52 53 56 56 56 57 56 55 53 52 51 49 49
29 28 27 26 25 25 25 25 27 29 31 34 35 37 39 40 42 44 45 47 50 51 53 53 52 52 51 52 55 56 57 62 67 70 71 70 69 70 71 73 75 75 73 71 70 69 68 66 63 62 60 60 60 58 57 56 56 57 56 57 54 50 48 47 45 42 40 39 37 38 39 40 42 45 46 47 50 52 53 54 56 55 54 53 52 51 50 50
28 27 26 25 25 25 25 26 28 30 32 35 37 39 41 42 43 45 47 49 51 52 52 51 50 50 50 51 51 52 56 60 63 68 71 70 69 69 69 70 72 74 75 73 71 70 70 68 66 65 62 61 59 58 57 56 57 57 55 56 54 50 50 50 47 45 43 41 38 38 38 38 40 41 40 42 44 45 47 50 51 51 51 50 49 48 47 47
27 26 25 25 25 25 26 28 30 31 33 36 39 41 42 44 44 45 48 50 51 50 48 46 46 46 48 50 49 50 54 57 59 65 69 71 70 69 69 69 69 71 74 74 73 71 70 70 68 64 63 62 59 58 58 57 57 56 53 54 54 51 52 51 48 47 45 43 41 39 39 39 39 37 36 37 36 38 41 43 44 45 45 45 44 43 42 42
26 25 25 25 25 26 27 29 31 32 35 38 40 42 44 44 44 45 48 50 49 47 44 43 44 44 46 47 47 48 52 54 56 61 67 70 70 69 69 68 67 68 71 74 74 72 70 70 67 65 65 63 60 59 57 56 57 56 53 53 53 53 53 51 49 48 46 46 43 41 41 39 37 35 35 35 34 35 36 36 37 37 37 38 37 37 37 37
25 25 25 25 26 27 29 30 31 33 35 39 41 42 43 44 43 45 48 49 48 43 42 42 41 42 44 44 43 45 47 50 53 58 65 69 69 69 69 67 67 66 68 72 74 73 71 70 69 68 66 63 62 60 56 55 56 56 54 53 53 53 52 50 48 48 46 47 43 42 44 39 37 38 35 35 34 34 34 33 33 31 31 31 30 30 30 32
25 25 25 25 26 28 30 31 32 34 36 39 41 42 43 43 42 45 47 49 46 42 40 39 38 40 41 39 40 42 42 45 49 54 61 67 69 68 68 67 66 66 66 69 72 73 72 70 70 69 66 64 63 59 57 56 56 56 55 54 55 53 51 50 48 47 46 46 44 45 46 41 41 40 36 35 35 34 34 33 32 30 29 28 26 25 26 27
25 25 25 25 27 29 31 32 34 35 37 40 40 41 42 41 42 44 46 48 44 40 39 36 36 38 38 37 38 40 40 39 45 51 58 65 68 68 67 66 65 65 65 67 70 72 72 71 70 69 68 66 64 59 58 58 57 57 57 56 55 52 52 50 47 46 46 46 46 47 47 44 44 41 35 35 36 34 34 34 32 30 28 27 25 24 24 24
25 25 25 25 28 30 32 33 34 36 38 39 39 41 41 41 42 43 45 45 42 39 37 34 35 36 36 36 37 40 39 35 40 46 53 61 65 67 66 65 64 64 65 65 68 70 71 71 71 71 70 67 64 61 61 61 59 59 58 56 55 53 52 49 46 46 45 46 46 47 47 45 45 42 37 37 36 34 34 34 32 31 29 28 26 24 24 24
25 26 25 26 29 31 32 33 34 36 37 37 39 39 39 40 41 41 43 43 39 38 36 33 34 35 35 35 36 39 38 32 34 39 46 55 61 64 64 63 63 63 64 65 66 68 70 71 71 72 71 69 66 65 65 63 59 59 57 56 57 55 52 49 46 44 43 45 45 46 46 44 44 42 39 39 38 36 35 34 33 32 30 29 27 25 25 24
25 26 26 27 30 32 33 34 35 35 35 36 38 39 38 39 40 39 40 40 37 36 34 33 31 31 34 35 35 37 36 30 31 34 39 47 55 59 60 61 62 63 64 64 65 67 69 71 73 73 72 70 68 66 64 61 58 58 56 55 57 54 50 47 42 40 40 42 43 44 44 41 41 41 41 41 40 38 37 36 35 34 33 31 28 27 26 25
25 27 27 28 31 32 33 34 35 34 34 36 38 38 38 38 38 37 37 37 35 33 32 31 28 28 31 33 34 35 32 29 28 31 35 41 48 53 57 59 61 63 63 63 64 65 68 71 73 73 71 70 69 65 63 61 61 60 56 54 53 48 45 43 40 39 39 40 42 42 41 38 39 42 42 42 42 41 41 39 38 36 34 32 30 28 27 27
25 26 28 29 31 33 34 35 35 34 34 37 38 37 37 37 37 36 36 34 32 31 31 31 29 27 29 29 31 31 28 25 24 29 33 38 44 49 53 57 60 62 62 62 63 64 68 71 71 71 70 70 68 64 63 63 62 60 54 51 50 47 44 43 42 40 38 40 41 41 40 37 39 42 42 43 43 42 42 41 39 38 36 34 32 30 29 28
24 26 28 30 32 33 35 36 36 34 35 37 38 37 36 36 37 36 34 31 27 29 30 30 29 28 28 27 27 26 25 22 23 30 33 37 42 46 51 55 59 60 60 61 63 65 67 69 70 70 70 70 67 64 64 64 62 57 51 49 49 46 45 45 43 41 40 41 41 40 39 36 38 41 41 43 44 42 42 42 41 40 39 37 34 33 31 28
24 26 28 30 33 34 36 37 37 35 36 38 38 37 35 35 36 34 34 30 25 28 29 28 27 27 27 26 24 24 23 20 22 31 35 37 40 44 50 54 57 59 60 61 63 64 66 67 68 69 70 70 68 66 65 63 58 54 51 49 47 46 46 45 43 43 42 41 41 40 37 35 38 41 41 42 42 41 43 43 44 44 42 40 38 36 33 30
25 27 29 31 33 34 36 38 37 36 36 38 38 36 35 35 35 33 33 30 26 27 28 26 25 24 25 25 23 22 22 18 21 32 35 36 39 43 49 53 57 59 60 60 61 61 63 65 67 69 71 70 68 66 64 61 56 54 52 49 47 46 45 43 43 43 42 41 42 39 35 35 39 40 39 39 40 41 42 44 45 45 44 42 40 37 34 31
26 28 29 32 33 35 37 37 37 37 37 39 38 36 35 35 35 32 31 30 27 26 26 24 23 22 23 23 20 20 22 19 18 31 36 37 39 42 48 53 57 58 59 59 59 60 63 65 67 70 71 69 66 65 63 60 57 55 53 49 48 46 44 44 45 43 42 42 41 38 36 36 39 38 36 38 39 39 40 42 44 44 44 43 41 37 33 32
27 28 30 32 34 35 36 36 37 36 36 39 38 35 34 35 34 31 31 30 28 26 24 22 21 20 21 21 19 20 22 20 16 28 37 38 39 42 48 53 56 58 58 58 59 61 63 67 70 71 69 66 66 65 64 60 57 55 53 50 48 46 45 45 44 43 42 42 41 39 37 36 37 36 35 37 37 36 38 40 41 43 43 43 40 37 35 34
27 28 30 33 35 36 35 35 36 35 36 39 36 34 34 35 33 31 31 30 27 25 22 20 20 19 20 20 20 21 21 20 16 23 37 39 40 42 45 51 55 58 59 59 60 61 64 68 69 68 65 65 66 65 64 60 56 55 52 48 46 44 45 45 44 43 42 44 43 40 37 36 36 36 36 36 34 35 37 37 38 39 40 40 39 38 37 36
28 29 30 33 35 36 35 35 35 34 36 38 35 33 34 34 32 30 30 29 27 24 22 20 19 18 18 20 21 19 19 19 15 18 35 40 39 42 44 48 53 57 58 59 60 61 65 68 66 64 64 66 65 64 64 59 56 55 51 46 44 44 46 46 45 44 45 47 44 40 39 38 38 39 36 34 33 34 33 30 30 32 34 36 37 38 37 38
29 29 30 33 36 37 36 35 35 35 36 38 34 32 33 33 31 29 28 28 26 24 21 19 18 17 18 21 20 18 18 17 15 14 32 41 39 43 46 45 50 56 57 57 57 59 65 67 64 63 64 65 64 64 62 57 56 56 50 45 45 46 46 45 45 47 48 47 43 41 41 39 39 37 35 34 34 30 25 23 24 25 27 30 33 36 38 39
30 30 31 33 36 36 36 36 36 35 37 37 33 32 33 31 30 29 27 27 25 22 19 17 17 17 18 19 19 18 18 16 14 12 30 42 39 42 46 43 45 52 57 57 55 59 65 65 62 63 65 64 64 64 61 57 57 54 48 45 46 46 46 47 48 50 50 47 45 44 42 39 38 37 35 33 27 22 21 22 21 21 21 24 28 33 36 38
30 31 32 34 36 36 36 36 35 35 37 36 32 32 32 31 30 29 26 25 23 19 17 16 16 17 18 19 18 18 18 16 14 11 29 42 41 42 45 44 42 46 54 57 56 60 64 62 62 64 64 64 65 64 59 57 56 51 47 46 47 47 47 48 50 52 51 49 47 46 44 42 40 38 37 31 24 23 24 22 20 19 20 21 24 27 31 34
30 31 34 36 37 36 36 36 34 35 36 34 31 31 32 32 30 27 24 24 22 18 16 16 16 16 18 18 17 18 18 15 13 11 28 41 42 41 44 46 45 46 53 58 57 61 62 59 61 63 64 66 66 62 59 58 55 50 48 49 48 49 50 50 52 53 52 49 48 49 46 44 43 42 39 31 27 27 25 22 21 21 20 21 23 25 27 30
30 32 35 36 36 36 35 34 33 35 34 31 31 32 32 33 31 25 24 24 22 19 15 15 15 15 17 16 16 20 17 11 10 13 28 40 41 41 43 46 48 49 52 56 57 60 60 59 61 63 65 66 63 60 60 60 56 53 52 51 51 51 52 53 54 54 53 52 52 51 48 46 45 44 38 30 28 28 25 24 24 22 21 22 23 24 25 25
31 33 35 36 35 34 34 33 33 34 32 30 31 32 32 33 31 27 26 25 23 19 15 15 15 14 16 16 16 19 13 8 10 15 29 38 40 41 43 44 47 49 50 53 57 58 59 60 63 64 63 63 61 60 59 58 56 54 53 52 52 52 53 53 53 54 53 54 54 51 48 48 47 44 36 31 31 30 27 26 25 23 21 20 20 20 19 19
30 32 34 35 34 33 32 32 33 33 32 31 31 31 31 32 30 28 27 25 24 20 16 15 14 13 14 15 17 16 10 7 10 18 29 37 39 40 43 44 44 47 50 53 56 56 57 59 62 62 61 60 60 60 58 55 54 53 52 52 53 52 52 53 54 55 55 56 55 51 49 50 48 43 36 33 34 32 29 28 26 24 22 20 18 16 14 14
29 31 34 35 33 32 32 32 33 34 33 31 29 30 30 29 29 27 25 24 23 18 14 13 12 11 13 14 16 16 10 5 9 20 28 36 39 38 41 44 43 46 51 52 53 55 55 56 58 60 60 59 59 59 58 55 52 53 53 53 52 53 54 54 55 56 56 57 53 49 50 51 46 40 35 34 35 32 30 29 27 25 24 21 18 15 14 12
29 31 34 34 33 32 32 33 35 35 33 30 28 28 29 29 30 28 24 23 20 14 12 12 10 9 13 14 14 15 11 3 10 21 29 34 36 35 38 41 43 49 51 48 50 53 52 53 57 60 61 60 59 59 58 55 53 53 53 54 54 57 56 54 55 54 54 53 49 47 50 49 44 38 36 36 35 32 30 28 26 26 25 22 19 17 15 12
28 30 33 34 32 32 32 33 36 35 32 29 27 27 28 29 31 30 26 22 17 13 12 12 11 10 11 12 12 13 10 1 12 22 30 33 33 36 39 39 43 50 50 48 49 49 47 51 58 59 58 59 60 59 57 56 57 55 54 55 56 57 55 53 54 54 52 50 48 48 49 48 44 40 37 36 34 32 29 28 26 26 25 23 20 18 16 12
27 29 32 33 32 31 31 33 36 35 32 29 27 28 29 30 31 31 29 24 17 14 13 11 11 10 9 8 8 9 7 3 14 21 28 31 30 37 42 40 42 48 49 47 47 47 46 49 55 56 55 57 59 58 57 58 59 57 56 56 54 52 51 50 51 51 49 48 48 49 49 48 45 40 36 35 33 31 30 28 27 27 26 25 22 20 16 12
26 28 31 32 31 31 31 32 34 34 32 29 27 27 29 30 30 30 29 27 20 15 14 12 10 8 6 6 5 6 5 7 17 19 24 28 28 36 42 39 39 45 47 44 44 47 47 45 51 54 54 56 57 57 59 59 57 57 57 56 53 51 50 49 49 49 47 47 47 48 46 44 42 36 33 33 33 32 31 29 29 28 27 26 24 21 16 13
25 26 30 31 31 31 30 31 32 32 31 29 27 26 28 30 30 29 28 26 21 15 14 13 11 7 5 3 2 3 2 12 20 18 21 27 27 34 42 39 37 42 46 43 42 47 46 42 47 53 55 57 57 56 57 57 55 56 57 55 53 51 50 50 51 49 47 46 46 46 43 39 35 31 31 33 33 33 31 30 30 29 28 27 24 20 16 14
24 24 28 31 31 30 30 30 30 30 30 29 27 25 26 29 29 30 29 26 22 17 15 15 13 8 4 5 3 2 8 16 19 16 20 27 25 31 40 38 35 37 41 42 40 44 45 40 44 52 54 55 55 54 55 55 55 55 54 53 53 52 51 51 51 49 47 46 45 44 40 34 29 28 30 33 33 32 31 31 31 30 29 28 25 20 17 16
24 23 26 29 30 30 30 29 27 28 29 29 27 25 26 27 27 29 30 27 24 21 20 18 14 7 6 6 6 10 15 17 17 15 20 26 22 26 37 38 34 32 35 38 38 41 43 40 41 47 49 49 52 54 55 56 56 54 53 53 53 53 52 50 49 48 46 44 42 39 36 31 26 26 30 31 31 32 31 32 31 31 31 29 24 20 19 18
25 24 24 27 29 30 30 28 26 25 27 28 27 26 26 27 28 29 29 29 28 26 25 23 15 10 11 11 11 16 17 18 17 13 19 24 19 23 35 38 33 31 31 33 34 39 42 40 40 45 48 49 53 57 58 57 56 54 53 53 53 52 51 50 50 49 45 43 41 34 29 27 26 26 29 31 31 31 32 32 32 32 31 28 24 22 22 21
25 24 23 25 28 29 29 28 25 22 23 25 26 25 25 26 28 30 29 29 29 27 28 29 24 18 18 19 18 19 17 18 17 13 16 21 18 23 34 36 32 31 30 31 33 37 39 38 41 47 51 52 54 56 56 55 55 54 52 52 51 49 49 48 48 46 43 42 40 32 26 25 26 26 28 30 31 31 32 32 33 33 31 28 26 24 24 23
25 23 22 24 27 28 28 27 24 21 20 22 23 24 24 24 26 27 29 30 30 28 28 30 30 25 22 21 19 17 17 17 16 14 15 18 20 25 31 32 31 30 31 33 33 36 35 34 39 47 49 49 51 51 52 53 55 55 53 52 51 49 48 46 44 41 39 39 37 31 27 26 26 26 27 30 31 31 32 33 34 33 31 29 27 26 25 24
26 24 22 22 25 27 28 26 24 21 20 20 22 23 24 24 24 24 25 27 30 29 27 27 30 30 25 20 16 13 14 16 16 15 14 14 19 25 27 28 29 29 32 35 33 33 33 31 36 43 45 46 48 51 53 54 55 55 54 53 51 50 49 46 42 40 39 36 32 29 27 26 26 27 28 30 32 32 34 35 35 33 31 29 28 27 26 24
26 26 24 23 23 25 27 25 23 21 19 19 20 21 22 23 23 22 21 23 26 28 27 25 26 28 28 22 16 14 13 15 15 14 14 14 16 21 25 26 28 28 32 36 33 30 30 31 34 38 43 48 50 51 53 53 54 54 53 52 51 50 49 46 44 42 39 34 30 28 28 27 27 29 29 31 33 33 34 35 34 32 31 30 29 28 26 23
25 26 24 22 22 23 25 24 22 20 19 19 20 20 21 21 22 22 21 21 23 26 25 24 22 23 25 22 17 15 13 13 13 13 15 17 17 20 22 24 27 28 31 34 33 29 28 30 32 36 44 50 51 50 49 50 51 52 51 50 49 49 48 46 45 42 38 35 32 30 30 29 30 30 30 31 32 33 33 33 32 31 31 30 29 27 25 22
23 23 23 21 21 22 23 22 21 19 18 18 20 21 22 22 21 21 21 20 21 22 22 21 20 19 20 21 17 15 13 12 13 15 18 20 21 21 21 21 23 27 30 32 32 31 28 28 30 35 42 47 48 48 47 48 49 49 49 48 47 46 46 44 43 40 37 35 32 31 31 30 30 30 29 30 31 32 33 32 32 32 31 30 28 27 25 24
24 23 23 22 20 21 22 21 20 19 17 17 18 19 20 21 20 20 21 20 18 18 18 17 17 16 16 17 16 14 15 13 13 16 19 21 22 23 24 23 22 26 29 31 31 30 29 29 30 33 40 44 46 47 47 46 46 46 47 48 47 45 44 42 41 39 36 34 32 31 31 30 29 28 27 28 29 31 32 32 32 32 31 30 28 26 26 26
24 23 23 22 20 20 20 19 19 19 18 17 18 19 19 19 19 19 19 18 16 15 14 13 13 13 12 12 13 15 17 15 14 17 19 20 21 22 24 24 25 27 30 31 31 29 28 29 29 30 36 41 43 45 45 45 46 47 47 47 46 45 43 42 40 38 35 33 32 31 30 29 28 26 25 26 27 29 30 31 32 32 31 30 29 28 27 27
Wind_Direction
292 290 288 286 284 282 280 278 276 274 273 271 270 268 266 265 264 263 261 260 258 256 254 252 251 250 250 249 247 246 245 244 243 242 240 239 238 237 236 235 234 234 234 233 233 233 232 232 232 231 231 231 231 233 231 230 230 230 231 232 233 233 233 235 237 235 232 228 223 226 224 228 236 231 228 230 229 230 230 229 229 232 233 235 238 240 242 243
295 293 291 289 287 285 284 282 280 279 277 276 274 272 270 268 266 265 263 262 260 259 257 255 253 251 250 249 248 247 246 245 244 242 241 239 238 238 236 235 234 234 233 232 232 232 232 232 231 230 231 231 230 232 232 231 231 230 231 233 234 234 234 235 237 236 233 230 223 224 223 225 235 233 229 231 232 232 232 231 229 230 231 233 236 238 240 242
299 297 295 294 292 290 289 287 286 285 284 282 280 278 276 274 271 268 266 263 261 260 259 257 256 254 252 250 248 247 246 245 244 243 242 240 238 238 237 235 234 233 233 232 231 231 231 231 231 230 230 231 230 230 231 231 230 231 231 233 234 234 235 236 237 236 234 230 224 223 221 224 232 232 229 230 234 234 233 234 231 229 230 231 234 236 238 241
303 302 300 299 297 295 294 292 291 290 289 287 286 284 282 279 277 274 271 268 265 262 259 257 256 255 254 252 250 248 247 246 244 243 242 241 239 238 236 235 234 233 232 231 230 231 231 230 230 230 230 230 230 230 230 230 230 231 232 233 235 234 236 238 237 236 235 231 226 224 221 224 230 230 229 229 233 236 236 236 233 231 231 232 234 235 237 240
307 306 304 303 301 299 298 297 296 295 294 293 292 290 289 288 285 282 279 275 272 268 264 260 257 255 254 253 251 249 248 247 245 243 242 241 240 238 237 235 234 233 232 231 230 230 230 229 229 229 229 230 230 230 230 230 230 231 232 233 235 235 235 238 237 235 236 233 228 225 222 225 228 228 229 230 231 236 239 236 234 235 234 235 236 237 239 241
311 309 308 306 305 303 302 301 301 300 299 298 298 298 298 297 295 293 290 287 283 278 273 268 263 258 255 252 251 250 248 247 246 243 242 241 240 238 237 235 233 233 232 231 230 229 229 229 228 228 229 230 230 230 230 231 230 231 233 233 234 236 235 237 238 234 235 233 229 225 223 226 228 228 228 229 230 234 239 238 236 237 237 237 239 239 241 243
314 312 311 309 308 307 306 306 305 304 303 302 302 302 303 302 300 299 298 296 293 289 284 278 272 266 261 255 250 249 248 248 246 243 241 240 239 238 237 235 233 232 232 231 230 229 229 229 228 228 228 229 230 230 230 231 231 231 233 232 233 235 235 236 236 233 232 231 228 225 224 226 228 229 228 228 229 233 238 240 239 239 238 239 240 241 244 246
317 315 313 311 310 310 310 311 311 311 310 309 309 309 308 307 304 302 300 299 297 295 291 286 279 273 268 262 255 250 248 249 246 243 241 240 239 238 236 235 233 231 231 231 230 229 229 228 228 228 228 229 229 230 230 231 231 231 233 233 232 234 234 234 234 231 229 228 226 225 224 226 228 230 230 228 229 233 236 240 241 241 241 241 242 243 245 249
318 316 315 314 313 314 315 316 317 317 315 314 314 313 313 311 308 306 304 302 299 296 293 289 284 278 272 267 261 254 250 249 245 242 241 239 238 237 235 234 232 231 230 230 229 229 229 228 228 228 228 228 229 229 229 230 231 230 232 234 233 232 232 233 232 229 228 227 225 224 224 226 228 230 231 229 231 233 235 239 242 243 243 244 244 245 247 249
319 317 316 315 314 316 317 318 318 317 315 315 314 314 314 312 310 308 306 305 302 298 293 288 284 280 276 271 265 259 254 249 244 241 240 238 236 236 235 233 232 230 229 228 228 228 228 228 227 227 227 228 228 228 229 229 231 230 230 233 233 231 231 231 231 228 227 226 224 224 224 226 228 229 230 230 231 233 234 237 240 242 244 245 246 246 247 249
319 316 315 314 314 315 316 316 316 315 314 314 314 314 314 313 311 309 308 306 302 297 291 287 283 281 280 277 272 267 260 251 244 240 239 237 235 234 233 232 231 229 228 227 227 226 226 226 226 226 226 227 227 227 228 227 229 230 229 233 233 230 230 230 229 228 227 226 224 224 224 225 226 226 228 230 231 232 234 236 239 241 243 245 246 247 247 248
317 315 314 313 313 314 314 314 314 313 313 313 313 314 314 313 311 310 309 307 302 296 290 285 283 282 283 283 281 276 266 254 244 239 238 236 233 232 232 231 230 228 227 226 225 225 225 225 226 226 226 226 226 226 226 225 228 230 228 231 232 230 230 229 228 228 227 226 224 224 224 224 224 224 226 229 229 231 233 234 237 240 242 244 246 247 248 248
315 314 312 311 311 312 313 313 313 313 313 313 313 313 313 312 310 310 311 308 302 295 289 286 285 286 287 287 286 281 272 260 247 238 236 234 232 230 229 229 228 227 226 225 224 223 223 224 224 225 225 225 225 225 225 225 227 228 227 229 231 230 230 228 227 227 226 226 224 224 226 224 225 224 224 227 227 229 231 232 234 236 239 241 243 245 247 248
313 312 311 309 310 311 312 312 312 312 313 313 313 313 312 311 309 310 312 309 302 296 291 288 288 289 292 292 290 284 275 264 250 238 233 231 230 228 227 226 226 225 224 223 223 222 222 222 222 223 223 223 224 224 224 224 225 227 226 227 229 229 229 227 227 227 226 227 224 225 227 224 224 223 220 224 225 227 230 231 232 233 235 238 239 242 244 247
311 311 309 309 310 311 310 310 311 312 312 313 312 313 312 310 310 311 313 310 304 297 293 291 291 293 296 296 293 288 279 266 252 239 231 228 227 226 225 224 223 223 222 222 221 221 220 220 221 221 222 222 223 222 223 223 223 225 225 225 227 228 229 226 225 225 225 227 225 225 227 223 224 223 217 221 224 225 229 230 231 231 233 235 236 238 241 243
310 310 309 309 311 312 310 310 310 311 312 312 313 313 312 311 311 313 313 310 304 298 295 293 292 296 300 300 296 293 286 269 252 239 230 226 224 223 222 221 221 220 220 220 219 219 218 218 219 219 220 220 221 220 222 222 221 223 223 223 225 226 228 226 223 223 223 225 225 225 226 224 225 225 218 221 223 224 228 229 231 231 231 232 233 234 236 238
310 310 309 311 314 314 312 311 311 312 312 312 313 314 313 312 312 314 314 310 304 298 295 293 294 299 302 301 298 299 295 273 251 239 230 224 221 219 219 218 218 217 216 217 217 216 216 216 217 217 218 218 218 218 220 220 219 221 221 221 223 223 226 226 222 222 222 223 224 225 226 224 226 225 220 222 223 223 227 229 230 231 231 231 230 231 231 233
310 311 311 313 316 317 315 313 313 313 313 313 314 315 314 313 312 314 315 311 303 297 295 293 295 301 303 301 298 302 302 279 248 238 232 224 218 216 215 214 214 214 214 214 214 214 213 214 215 216 216 217 217 217 219 220 219 221 220 220 221 220 222 224 220 220 222 223 224 226 226 224 226 226 222 223 223 222 225 227 229 229 229 229 228 228 228 230
309 313 314 315 317 318 316 316 316 316 315 315 316 316 315 313 312 314 315 311 303 297 294 292 295 302 303 300 298 302 305 285 249 235 233 224 217 214 211 210 211 211 211 211 212 211 211 212 213 214 215 216 216 217 218 219 220 221 220 220 222 220 221 223 221 220 221 224 225 227 228 224 225 227 224 224 223 222 224 226 227 227 227 227 226 226 226 227
307 313 315 316 318 318 318 318 317 317 317 318 318 316 315 314 312 314 316 312 303 297 294 292 297 304 301 298 299 302 303 288 252 233 232 223 215 212 208 206 207 207 208 208 209 209 209 211 212 214 215 215 215 215 217 218 219 220 219 220 223 221 220 222 221 219 220 223 224 226 227 223 224 227 225 224 224 222 223 225 226 227 228 227 225 225 225 225
304 311 315 318 319 318 319 320 319 318 319 320 320 318 317 315 313 313 316 315 305 297 295 294 297 304 302 299 301 302 301 288 251 229 228 220 213 210 206 203 204 205 204 205 206 206 208 210 211 213 213 214 213 213 215 217 218 219 217 218 221 218 217 218 217 217 217 221 223 223 224 220 221 225 224 224 224 222 222 224 226 228 228 228 226 225 224 224
305 310 314 318 319 319 320 320 320 318 320 322 322 319 318 316 314 312 315 317 306 295 295 295 297 303 304 302 303 304 303 288 248 226 223 217 210 207 204 201 201 202 201 202 203 203 206 209 209 210 211 212 211 211 214 216 217 218 217 217 218 216 214 214 214 213 214 218 221 221 221 218 219 224 223 223 223 221 221 222 224 226 228 227 226 226 226 225
311 313 317 319 320 320 321 321 321 320 321 324 324 320 318 317 316 313 313 318 309 294 295 297 297 301 305 305 305 307 307 292 248 226 220 214 208 204 202 199 198 199 199 201 202 202 204 207 207 207 209 210 209 210 213 215 215 216 216 216 216 214 214 213 212 213 212 215 218 219 217 215 218 222 222 222 223 221 220 220 222 224 226 226 225 225 225 224
316 317 320 321 321 323 322 321 322 322 323 326 325 320 319 319 318 314 313 317 311 297 296 297 296 299 305 307 305 307 312 301 251 227 218 210 206 202 199 197 196 197 198 199 201 200 202 204 205 206 207 207 207 209 211 213 213 213 214 214 214 213 212 210 211 213 213 214 217 217 214 213 218 221 221 221 222 221 219 220 220 222 225 226 227 226 226 226
318 319 321 322 323 324 324 323 323 325 326 327 325 321 320 322 320 316 314 316 314 303 297 297 297 297 305 309 306 307 315 310 260 228 216 208 205 200 197 195 194 195 196 197 198 198 199 202 202 205 206 205 205 207 210 211 211 211 211 210 210 209 208 207 209 210 211 214 216 215 212 213 218 221 220 221 222 221 220 220 221 222 223 226 228 228 229 230
320 320 322 323 324 325 325 324 326 327 329 329 326 322 323 324 323 319 316 316 317 310 301 298 297 297 307 312 309 309 314 317 281 230 215 207 204 199 196 194 192 192 193 196 197 196 198 201 202 204 204 203 204 205 207 208 209 210 209 208 208 205 204 206 206 208 211 213 215 214 212 213 218 220 219 221 221 221 221 221 221 222 223 225 226 227 229 230
324 323 324 324 325 326 326 327 328 329 331 331 328 324 325 326 326 323 318 318 319 314 305 299 297 301 310 312 312 314 313 319 303 233 212 206 202 197 195 193 191 191 191 194 195 195 197 201 202 202 201 201 203 204 205 206 207 209 208 207 207 204 203 203 203 205 209 212 212 211 210 212 217 219 219 220 220 220 221 220 220 222 223 224 225 225 227 229
329 328 328 328 327 328 329 329 330 331 333 333 330 327 328 328 328 326 321 320 321 317 309 300 297 301 309 310 314 317 309 314 311 237 209 203 201 195 193 192 192 192 191 193 194 194 198 200 199 199 199 200 201 203 205 203 205 208 205 204 203 201 201 201 200 203 208 211 210 208 208 210 214 217 217 217 217 217 219 219 220 223 223 224 224 225 226 227
333 333 332 332 331 331 332 333 332 332 335 335 332 330 331 331 331 329 324 323 323 320 313 302 299 300 306 311 313 314 308 310 313 250 208 201 199 195 192 191 191 192 191 191 192 194 199 199 195 195 198 199 199 201 203 201 204 206 201 199 200 199 200 199 199 203 209 211 209 209 209 209 214 218 216 215 215 213 211 211 213 216 218 221 223 224 226 228
336 336 336 335 335 334 335 335 334 335 337 336 334 334 335 334 334 332 328 327 326 323 316 306 301 300 306 312 311 311 311 310 312 262 207 199 197 194 191 190 191 191 191 190 192 197 199 196 193 194 196 197 197 199 199 198 204 204 197 196 198 197 197 198 199 203 208 209 208 209 209 208 213 217 217 215 210 203 200 202 204 203 206 210 216 221 224 227
338 339 339 339 339 338 338 338 337 338 339 337 337 339 339 338 337 334 332 331 331 328 320 309 305 305 310 315 313 313 315 309 303 254 204 197 195 193 190 189 189 190 191 190 192 197 197 193 192 193 194 195 197 197 195 197 202 200 194 194 196 195 195 197 200 204 208 208 209 210 208 207 209 214 216 209 197 195 197 197 198 197 199 203 209 216 221 225
341 342 343 342 341 341 341 341 342 342 340 339 342 344 342 341 339 336 335 336 335 330 321 311 310 313 314 317 320 321 318 302 287 235 199 194 193 192 190 190 189 190 191 191 193 197 194 190 191 192 193 195 196 194 193 196 198 194 192 194 194 194 195 197 200 205 207 207 209 211 209 207 209 212 212 201 193 198 197 195 199 199 199 202 205 211 216 220
343 345 345 344 344 343 344 345 346 344 342 343 346 345 344 343 341 336 335 339 337 330 319 312 314 316 317 320 325 327 319 289 260 218 194 190 191 191 191 191 191 191 191 191 194 196 192 189 190 192 194 195 193 191 193 195 195 192 193 194 194 195 196 197 200 204 206 206 210 211 209 209 211 213 209 198 196 201 198 199 204 203 203 206 209 213 216 217
345 345 346 346 346 347 348 350 349 346 346 348 347 347 346 345 341 333 331 337 338 331 319 314 315 316 319 322 328 331 326 282 240 202 188 187 188 189 190 189 189 190 191 193 195 195 190 188 190 191 193 193 191 191 194 195 194 192 192 193 194 196 198 199 200 203 206 208 212 212 211 211 212 213 206 197 201 203 201 204 206 207 209 212 216 219 219 219
346 345 347 348 349 350 352 352 350 350 352 352 350 351 351 347 342 333 328 332 336 335 326 320 319 319 321 324 332 339 334 284 232 192 184 186 187 187 188 188 187 188 191 193 196 195 190 189 189 190 192 191 189 190 192 192 193 191 190 192 193 195 198 199 201 204 206 209 212 211 213 214 214 212 204 200 205 205 204 207 208 210 212 214 218 218 216 215
346 346 348 350 351 352 353 353 353 354 357 357 357 358 356 351 344 336 331 333 336 337 333 330 330 329 328 326 334 346 340 288 208 183 181 184 186 186 188 188 186 187 190 193 196 194 189 190 190 189 189 189 189 190 189 189 192 192 192 192 193 195 198 200 202 205 206 210 212 211 214 217 216 212 205 205 210 209 208 210 210 212 214 215 216 216 215 213
346 347 350 351 352 354 354 353 356 359 0 2 4 3 1 360 354 347 341 337 338 341 341 341 340 334 333 328 330 343 344 302 189 182 179 179 183 185 186 188 187 187 189 191 195 194 189 191 191 189 189 186 187 190 187 185 189 192 193 193 193 195 198 199 203 207 208 211 213 213 216 220 219 213 207 209 213 212 212 213 213 215 216 217 218 220 220 214
346 348 350 351 353 355 355 355 359 1 3 6 9 7 6 6 4 1 355 348 343 342 343 347 345 336 332 329 327 339 351 52 172 179 178 176 182 185 184 186 187 187 188 189 192 191 189 192 191 189 188 186 187 188 185 185 188 189 192 194 195 197 198 198 202 207 208 210 213 215 216 219 219 214 209 211 215 215 215 214 215 217 218 219 220 223 222 216
348 350 350 352 355 356 356 356 359 2 4 7 9 11 12 9 7 6 4 360 354 345 344 346 347 340 327 325 332 344 356 149 167 172 174 176 183 187 184 184 186 187 187 188 189 188 189 193 192 187 187 188 188 185 184 188 189 187 191 195 196 198 199 200 204 206 208 210 213 217 217 218 219 215 210 211 215 216 216 214 214 216 218 219 220 222 220 219
351 351 350 352 355 357 357 356 358 1 5 6 8 10 13 13 10 8 7 7 3 357 355 350 347 345 328 328 337 343 1 153 161 159 168 177 183 187 186 184 185 186 186 187 188 188 188 191 191 187 185 187 188 185 185 189 188 187 191 193 194 197 198 200 204 207 208 210 214 219 220 219 219 217 213 213 215 216 214 212 212 213 214 215 216 217 218 223
352 351 349 352 356 357 357 355 357 2 5 6 7 8 11 13 13 11 12 13 12 8 5 359 354 350 348 19 11 322 51 145 153 149 164 178 184 185 185 184 183 184 186 187 188 187 185 188 190 187 185 186 186 186 187 188 188 190 192 191 192 195 196 199 204 205 206 209 213 218 220 219 216 213 212 214 214 215 212 209 210 211 211 211 211 211 215 225
350 351 351 352 356 358 357 355 359 5 8 8 8 8 11 13 12 13 15 19 23 21 12 5 1 4 40 61 63 140 132 143 153 150 160 174 182 186 185 184 182 182 185 187 188 187 185 185 188 188 187 185 184 185 187 188 188 191 192 191 191 194 196 199 204 205 205 208 213 216 217 216 210 205 208 211 211 211 209 207 207 207 208 209 208 207 213 223
349 353 354 352 356 359 357 359 4 8 10 12 13 13 14 13 11 12 14 17 25 30 24 14 10 32 75 58 72 126 134 142 152 154 161 168 177 185 185 184 181 179 182 184 186 187 186 185 186 186 185 185 184 185 187 188 189 190 192 192 193 194 195 198 204 206 206 208 213 215 215 211 202 200 205 207 207 207 204 204 204 204 206 207 204 204 211 219
349 352 354 353 358 359 356 1 10 12 11 13 16 17 18 17 16 16 15 15 21 29 33 30 35 66 80 69 90 119 128 140 148 150 160 166 173 183 184 183 180 177 178 181 183 185 186 186 185 183 183 185 185 185 187 188 188 189 191 193 195 196 195 197 203 205 205 207 211 212 213 207 197 196 201 202 203 203 201 200 201 202 204 203 200 201 208 215
351 351 352 355 359 359 357 1 10 15 15 14 17 19 19 21 23 23 22 21 20 25 31 36 45 65 74 75 94 114 120 132 141 138 151 166 176 181 181 181 178 176 176 177 179 182 185 187 186 184 185 185 185 186 187 187 187 189 191 193 195 197 197 199 203 203 204 207 208 204 202 198 192 193 197 198 199 200 199 198 199 201 202 200 198 201 209 214
352 351 352 355 359 0 0 1 6 14 16 15 17 19 19 20 22 23 25 25 23 23 26 32 41 54 66 75 91 110 118 126 132 127 141 167 178 176 178 179 176 176 177 175 176 180 183 185 186 185 185 184 185 187 188 188 189 190 191 193 195 196 198 200 202 203 205 208 207 202 197 193 189 191 194 196 197 196 195 196 197 199 200 198 199 203 209 213
350 351 352 355 358 1 2 2 4 9 12 11 12 16 19 20 22 22 21 21 24 26 28 29 33 42 54 66 81 98 113 124 127 123 133 160 172 173 176 176 174 177 179 176 176 179 180 182 185 185 183 184 186 188 188 189 190 190 191 192 193 196 198 199 200 202 204 206 205 200 195 193 190 190 191 193 196 195 194 195 196 197 198 198 200 204 209 211
348 350 352 354 357 2 5 5 5 6 8 8 7 9 12 13 20 26 24 22 26 29 32 31 28 31 41 54 73 88 104 123 126 123 133 146 158 168 174 174 171 174 178 177 176 177 179 180 182 182 182 184 188 189 189 190 191 192 192 193 193 195 197 197 199 201 200 200 199 194 191 192 192 191 190 191 195 195 195 196 196 196 198 199 201 206 210 211
349 349 350 351 355 2 7 6 5 6 7 7 7 7 7 7 14 24 25 22 24 28 32 35 30 25 29 42 66 87 102 124 127 126 139 146 149 160 169 172 171 170 175 178 176 175 178 180 180 181 184 186 187 187 189 191 192 192 194 194 195 196 196 197 199 199 197 196 194 188 186 190 193 191 189 190 194 196 196 195 195 196 198 200 204 207 208 209
350 349 348 348 352 0 5 5 6 7 7 8 9 9 7 8 12 20 21 17 16 20 25 30 29 23 23 34 56 85 105 124 133 137 145 148 148 155 162 167 171 171 172 176 177 176 178 179 179 182 185 187 186 185 188 192 194 194 194 195 197 198 198 198 199 198 197 196 193 186 183 189 193 191 189 189 191 194 195 195 195 197 200 202 205 206 208 211
349 349 348 347 349 356 2 4 6 9 10 10 12 10 9 12 16 18 19 16 14 19 20 21 25 27 27 31 46 80 104 115 129 143 150 151 154 160 161 162 167 171 171 173 176 178 180 179 178 181 184 186 186 186 188 191 193 195 196 196 196 198 199 199 199 198 197 196 194 187 183 187 191 189 188 189 190 192 194 195 198 201 202 203 204 205 208 212
348 348 348 346 345 349 358 4 6 8 10 9 10 11 12 18 24 24 23 20 21 29 31 26 33 47 53 47 53 79 96 104 120 138 146 151 156 161 161 160 164 168 170 173 175 177 180 179 176 180 184 185 186 187 188 189 192 195 196 196 197 197 197 198 199 198 196 196 195 189 184 187 190 187 186 189 191 191 192 194 199 203 203 202 201 202 207 212
Height
5726 5725 5724 5723 5722 5722 5721 5720 5720 5719 5718 5718 5717 5717 5717 5717 5717 5716 5716 5716 5717 5717 5718 5719 5720 5720 5722 5723 5724 5726 5727 5729 5732 5734 5736 5740 5742 5745 5749 5753 5756 5759 5763 5768 5770 5773 5776 5779 5783 5787 5789 5792 5795 5796 5800 5803 5806 5808 5809 5809 5809 5812 5817 5820 5823 5826 5833 5841 5848 5848 5847 5848 5846 5849 5850 5851 5852 5853 5855 5857 5859 5860 5862 5864 5865 5866 5868 5869
5722 5721 5720 5719 5718 5717 5716 5715 5714 5713 5713 5712 5712 5712 5711 5711 5711 5710 5710 5710 5710 5710 5711 5711 5712 5713 5714 5715 5716 5718 5719 5721 5723 5725 5728 5733 5735 5738 5742 5746 5750 5753 5757 5761 5764 5767 5770 5774 5777 5781 5783 5786 5789 5791 5794 5797 5800 5802 5804 5803 5804 5810 5814 5817 5818 5824 5832 5838 5844 5844 5843 5845 5843 5844 5847 5848 5849 5850 5852 5854 5856 5857 5859 5861 5862 5864 5865 5866
5717 5716 5715 5714 5713 5712 5710 5710 5709 5708 5707 5706 5706 5705 5705 5705 5704 5704 5703 5703 5703 5703 5703 5704 5704 5705 5706 5706 5708 5709 5711 5713 5715 5717 5720 5725 5728 5731 5735 5739 5743 5747 5750 5754 5757 5761 5764 5768 5771 5775 5778 5779 5783 5786 5788 5791 5794 5797 5799 5798 5801 5808 5811 5813 5815 5822 5828 5832 5839 5840 5840 5841 5839 5839 5843 5846 5846 5846 5849 5850 5852 5854 5856 5858 5859 5861 5862 5864
5713 5711 5710 5709 5707 5706 5705 5704 5703 5702 5701 5700 5699 5699 5698 5698 5697 5696 5696 5696 5695 5695 5695 5696 5696 5697 5697 5698 5700 5701 5703 5704 5705 5709 5712 5716 5719 5723 5727 5731 5736 5740 5743 5747 5751 5754 5757 5762 5766 5770 5772 5774 5777 5780 5782 5785 5789 5792 5793 5794 5800 5805 5807 5808 5813 5819 5823 5828 5834 5835 5836 5837 5834 5835 5840 5842 5842 5844 5846 5845 5847 5851 5853 5855 5857 5859 5860 5861
5708 5706 5705 5704 5702 5701 5700 5698 5697 5696 5695 5694 5693 5692 5691 5690 5689 5689 5688 5688 5687 5687 5687 5687 5688 5688 5687 5688 5690 5692 5694 5694 5696 5700 5703 5706 5711 5714 5719 5724 5729 5733 5736 5740 5745 5748 5751 5755 5760 5763 5765 5768 5771 5774 5777 5781 5785 5787 5788 5793 5798 5800 5802 5804 5809 5816 5819 5824 5829 5830 5833 5832 5828 5831 5836 5837 5839 5842 5839 5838 5844 5848 5850 5852 5854 5856 5857 5859
5703 5701 5700 5698 5697 5695 5694 5693 5691 5690 5689 5688 5687 5686 5684 5683 5682 5681 5680 5680 5679 5679 5678 5679 5678 5679 5678 5679 5680 5682 5684 5685 5685 5689 5694 5698 5701 5705 5710 5716 5721 5725 5729 5733 5738 5741 5745 5749 5753 5757 5760 5763 5765 5770 5774 5777 5781 5783 5785 5791 5794 5794 5798 5802 5807 5813 5815 5819 5823 5825 5827 5825 5824 5828 5831 5832 5836 5837 5833 5835 5843 5845 5847 5849 5851 5853 5855 5856
5698 5696 5695 5693 5692 5690 5689 5688 5686 5685 5684 5683 5682 5681 5679 5678 5676 5675 5674 5672 5671 5670 5670 5670 5669 5669 5668 5669 5671 5672 5674 5674 5673 5678 5685 5688 5691 5696 5702 5707 5713 5718 5721 5726 5731 5735 5739 5743 5747 5752 5755 5758 5761 5766 5770 5772 5776 5779 5782 5786 5788 5790 5796 5800 5804 5808 5811 5814 5817 5819 5820 5820 5821 5823 5825 5829 5833 5833 5831 5835 5838 5840 5844 5846 5848 5850 5852 5853
5693 5692 5690 5689 5687 5686 5684 5683 5682 5680 5679 5677 5677 5676 5674 5673 5671 5670 5668 5666 5665 5662 5661 5660 5660 5660 5658 5659 5660 5662 5665 5663 5662 5669 5675 5678 5682 5687 5693 5697 5704 5710 5713 5718 5724 5729 5733 5737 5742 5746 5750 5753 5756 5761 5764 5767 5770 5775 5778 5780 5783 5787 5793 5797 5800 5803 5806 5809 5812 5814 5815 5816 5817 5819 5821 5826 5830 5830 5831 5833 5834 5837 5840 5843 5845 5847 5849 5850
5689 5687 5686 5684 5683 5681 5680 5678 5677 5675 5674 5672 5671 5670 5669 5667 5665 5663 5662 5660 5658 5656 5653 5651 5650 5650 5649 5649 5649 5652 5655 5651 5652 5659 5663 5668 5673 5677 5683 5688 5694 5701 5705 5711 5716 5721 5726 5731 5737 5741 5745 5748 5751 5755 5759 5763 5766 5771 5774 5775 5779 5785 5790 5793 5795 5799 5802 5804 5807 5809 5811 5812 5814 5815 5818 5823 5826 5826 5829 5830 5831 5833 5836 5839 5842 5844 5846 5847
5685 5683 5681 5680 5678 5677 5676 5674 5673 5671 5669 5667 5666 5665 5663 5661 5659 5657 5655 5653 5650 5648 5645 5643 5641 5639 5639 5639 5639 5642 5642 5638 5643 5649 5651 5658 5663 5667 5673 5679 5685 5691 5697 5702 5708 5714 5719 5725 5730 5734 5738 5741 5745 5750 5754 5759 5761 5765 5769 5770 5775 5782 5786 5788 5790 5795 5797 5800 5803 5805 5807 5810 5810 5812 5815 5819 5821 5823 5826 5827 5828 5830 5833 5835 5837 5840 5843 5844
5681 5679 5678 5676 5675 5673 5672 5670 5669 5667 5665 5663 5661 5660 5658 5655 5653 5651 5648 5646 5643 5640 5637 5635 5633 5631 5630 5629 5631 5631 5626 5627 5634 5638 5640 5646 5652 5658 5664 5670 5676 5682 5688 5694 5700 5707 5712 5717 5722 5726 5732 5735 5740 5745 5749 5754 5755 5758 5765 5767 5771 5778 5780 5782 5786 5790 5793 5796 5800 5802 5804 5806 5806 5809 5813 5815 5817 5821 5823 5824 5826 5827 5830 5832 5834 5837 5839 5841
5677 5676 5674 5673 5671 5670 5668 5666 5665 5663 5661 5659 5657 5655 5652 5650 5647 5644 5642 5639 5635 5632 5629 5627 5625 5624 5622 5622 5623 5618 5612 5616 5623 5626 5628 5634 5642 5648 5654 5661 5667 5673 5680 5686 5692 5699 5704 5710 5716 5722 5726 5730 5735 5739 5743 5749 5750 5754 5762 5763 5767 5773 5774 5778 5782 5785 5789 5793 5796 5799 5799 5801 5803 5807 5811 5812 5815 5818 5818 5821 5823 5824 5827 5829 5831 5833 5835 5837
5674 5672 5671 5669 5668 5666 5664 5663 5661 5659 5657 5654 5652 5649 5647 5644 5641 5638 5635 5632 5628 5624 5622 5620 5618 5616 5615 5615 5613 5607 5603 5605 5610 5615 5618 5624 5632 5638 5644 5652 5658 5664 5671 5677 5683 5691 5697 5703 5710 5715 5719 5725 5730 5733 5739 5744 5746 5750 5757 5759 5762 5766 5768 5773 5778 5781 5785 5788 5792 5795 5795 5798 5802 5805 5808 5810 5812 5814 5815 5818 5820 5822 5824 5825 5828 5830 5832 5833
5671 5669 5668 5666 5665 5663 5661 5659 5657 5655 5652 5650 5647 5644 5642 5639 5636 5632 5629 5625 5620 5617 5615 5613 5611 5609 5608 5608 5603 5598 5595 5595 5598 5605 5608 5613 5621 5628 5636 5643 5649 5656 5663 5669 5675 5683 5690 5696 5702 5707 5713 5719 5723 5728 5735 5739 5742 5746 5751 5754 5757 5760 5764 5770 5774 5778 5781 5784 5789 5792 5792 5797 5799 5801 5805 5807 5809 5811 5813 5815 5817 5820 5821 5823 5825 5827 5828 5830
5668 5666 5665 5663 5661 5659 5657 5655 5653 5651 5648 5645 5643 5640 5637 5633 5630 5626 5622 5618 5613 5610 5608 5606 5605 5602 5601 5600 5595 5590 5587 5586 5589 5594 5597 5603 5611 5619 5627 5634 5641 5648 5654 5660 5667 5675 5682 5688 5694 5700 5708 5713 5717 5724 5729 5732 5737 5740 5744 5749 5751 5756 5760 5765 5770 5774 5778 5781 5786 5787 5788 5793 5795 5796 5802 5804 5806 5809 5810 5812 5815 5817 5819 5821 5823 5824 5826 5827
5665 5663 5662 5660 5658 5656 5654 5652 5650 5647 5644 5641 5638 5635 5631 5628 5624 5620 5615 5611 5606 5603 5601 5600 5599 5596 5594 5592 5588 5583 5580 5579 5580 5583 5588 5594 5601 5609 5618 5626 5633 5639 5646 5652 5659 5667 5674 5680 5687 5694 5700 5705 5711 5719 5723 5726 5731 5734 5738 5743 5747 5752 5755 5760 5766 5770 5774 5777 5780 5782 5784 5790 5791 5794 5800 5801 5803 5806 5808 5810 5812 5814 5816 5818 5820 5821 5823 5824
5662 5660 5659 5657 5655 5653 5650 5648 5646 5643 5640 5636 5633 5630 5626 5622 5618 5614 5609 5604 5600 5597 5595 5595 5593 5591 5588 5585 5582 5577 5574 5572 5572 5574 5579 5584 5591 5600 5609 5617 5624 5630 5638 5644 5651 5658 5666 5673 5680 5686 5692 5698 5706 5712 5714 5718 5724 5728 5733 5739 5743 5748 5751 5756 5762 5766 5769 5772 5775 5777 5780 5786 5788 5791 5797 5799 5801 5804 5805 5807 5809 5812 5814 5815 5817 5819 5820 5821
5659 5657 5655 5653 5651 5649 5646 5644 5642 5639 5636 5632 5628 5625 5621 5617 5612 5608 5603 5598 5594 5591 5590 5589 5587 5585 5582 5579 5576 5572 5568 5567 5565 5567 5571 5575 5583 5591 5599 5608 5615 5623 5630 5636 5643 5651 5658 5665 5672 5678 5685 5692 5699 5704 5708 5714 5721 5724 5729 5735 5737 5742 5747 5752 5758 5763 5767 5769 5772 5774 5777 5783 5785 5789 5794 5795 5798 5801 5802 5805 5806 5809 5810 5812 5814 5816 5817 5819
5656 5654 5652 5650 5648 5645 5643 5640 5637 5634 5631 5627 5623 5620 5616 5612 5608 5603 5599 5593 5589 5586 5585 5584 5583 5581 5577 5573 5571 5567 5564 5562 5561 5562 5564 5569 5576 5583 5591 5600 5607 5615 5622 5629 5636 5643 5651 5657 5663 5670 5678 5687 5694 5700 5706 5712 5717 5720 5726 5731 5733 5740 5746 5751 5757 5762 5764 5766 5769 5771 5774 5781 5784 5786 5790 5792 5794 5797 5799 5801 5803 5805 5807 5809 5812 5813 5815 5816
5653 5651 5649 5647 5644 5641 5639 5636 5633 5630 5626 5623 5618 5614 5610 5607 5602 5598 5595 5589 5583 5581 5580 5578 5578 5577 5573 5569 5565 5563 5560 5558 5557 5558 5559 5563 5570 5576 5584 5592 5599 5607 5614 5623 5630 5637 5644 5649 5656 5666 5676 5683 5689 5697 5702 5707 5711 5714 5722 5728 5732 5741 5746 5750 5755 5759 5761 5763 5765 5768 5772 5778 5781 5782 5785 5788 5790 5793 5795 5797 5799 5802 5804 5807 5809 5811 5813 5813
5650 5648 5645 5643 5641 5638 5635 5632 5628 5625 5622 5618 5613 5609 5605 5601 5597 5593 5590 5585 5579 5575 5574 5573 5572 5572 5569 5565 5562 5559 5556 5553 5553 5554 5555 5559 5564 5570 5578 5585 5592 5600 5610 5618 5624 5631 5636 5643 5655 5665 5672 5677 5684 5693 5697 5701 5705 5711 5720 5726 5731 5738 5742 5746 5751 5755 5758 5759 5761 5765 5769 5774 5777 5777 5780 5783 5785 5788 5791 5794 5797 5799 5801 5804 5806 5808 5809 5810
5646 5644 5642 5640 5637 5634 5631 5627 5624 5621 5617 5613 5608 5604 5600 5596 5592 5588 5585 5582 5577 5571 5569 5568 5567 5566 5564 5561 5558 5555 5552 5550 5549 5548 5550 5554 5559 5566 5573 5580 5587 5597 5605 5610 5615 5623 5631 5642 5652 5659 5664 5671 5680 5688 5691 5695 5702 5710 5718 5723 5728 5734 5738 5742 5746 5750 5753 5755 5758 5762 5766 5771 5773 5774 5776 5778 5781 5785 5788 5791 5793 5795 5797 5800 5802 5804 5806 5808
5643 5641 5639 5636 5633 5630 5627 5623 5619 5616 5612 5608 5604 5599 5595 5591 5587 5583 5580 5578 5574 5568 5566 5565 5563 5561 5559 5556 5554 5551 5548 5546 5545 5544 5546 5550 5556 5562 5568 5576 5584 5591 5597 5603 5610 5619 5629 5639 5645 5651 5658 5666 5674 5681 5685 5692 5701 5708 5715 5719 5725 5731 5734 5739 5744 5746 5749 5752 5754 5758 5763 5768 5769 5769 5770 5773 5777 5781 5784 5786 5789 5790 5792 5795 5798 5800 5803 5805
5640 5638 5636 5633 5630 5627 5623 5619 5615 5612 5608 5604 5599 5594 5590 5586 5582 5579 5575 5573 5570 5565 5562 5561 5559 5557 5555 5553 5550 5548 5545 5543 5541 5540 5543 5548 5553 5558 5564 5572 5579 5585 5592 5601 5610 5620 5627 5633 5639 5645 5651 5659 5669 5676 5682 5689 5697 5704 5709 5716 5722 5727 5732 5737 5740 5743 5747 5749 5751 5755 5761 5763 5764 5764 5767 5771 5774 5777 5779 5782 5784 5787 5789 5792 5794 5797 5801 5803
5637 5635 5632 5629 5626 5623 5619 5615 5611 5608 5603 5599 5594 5590 5586 5582 5577 5574 5570 5568 5565 5562 5559 5557 5556 5554 5552 5550 5547 5545 5542 5540 5538 5537 5541 5545 5549 5554 5560 5566 5573 5581 5591 5599 5606 5614 5621 5626 5632 5638 5645 5655 5665 5672 5679 5686 5693 5699 5705 5711 5717 5723 5729 5733 5736 5740 5744 5746 5748 5753 5757 5759 5760 5762 5765 5768 5770 5773 5776 5778 5781 5784 5787 5789 5792 5796 5799 5801
5634 5632 5629 5626 5623 5620 5616 5612 5608 5604 5599 5594 5590 5586 5582 5577 5573 5569 5566 5563 5560 5557 5555 5554 5552 5551 5549 5547 5544 5542 5540 5537 5535 5535 5539 5543 5547 5552 5557 5563 5570 5578 5587 5594 5601 5608 5614 5619 5625 5632 5643 5654 5661 5667 5675 5682 5689 5695 5701 5708 5713 5720 5725 5729 5734 5738 5741 5743 5746 5750 5754 5757 5758 5760 5763 5764 5767 5770 5773 5775 5778 5781 5784 5787 5791 5794 5796 5798
5632 5629 5627 5623 5619 5616 5613 5609 5604 5600 5596 5591 5586 5582 5578 5573 5569 5565 5561 5559 5556 5554 5552 5550 5549 5548 5546 5544 5542 5540 5538 5535 5533 5533 5536 5541 5545 5551 5556 5562 5569 5574 5580 5587 5593 5601 5608 5613 5621 5631 5642 5650 5656 5663 5670 5678 5686 5692 5699 5706 5712 5718 5723 5726 5731 5735 5738 5739 5742 5746 5751 5754 5756 5757 5759 5762 5765 5767 5769 5772 5776 5778 5782 5785 5789 5791 5793 5795
5629 5626 5624 5620 5616 5612 5609 5605 5601 5596 5592 5587 5583 5578 5574 5570 5566 5562 5558 5555 5553 5551 5549 5547 5546 5545 5544 5542 5540 5539 5536 5534 5532 5530 5534 5539 5544 5549 5554 5560 5566 5572 5577 5583 5590 5599 5604 5609 5619 5630 5639 5645 5653 5661 5667 5676 5682 5687 5696 5704 5710 5716 5720 5724 5729 5732 5733 5734 5738 5744 5747 5750 5751 5752 5756 5759 5762 5763 5766 5771 5775 5777 5780 5783 5785 5788 5790 5791
5626 5624 5621 5617 5613 5609 5605 5602 5597 5593 5589 5584 5579 5575 5571 5566 5562 5559 5555 5552 5550 5548 5546 5544 5543 5542 5542 5540 5538 5537 5534 5532 5530 5529 5532 5537 5542 5546 5551 5557 5563 5569 5575 5582 5591 5597 5599 5606 5618 5628 5634 5642 5650 5657 5664 5674 5678 5683 5694 5702 5706 5712 5717 5722 5726 5728 5728 5731 5737 5741 5743 5747 5749 5750 5753 5756 5758 5762 5767 5771 5773 5775 5777 5780 5782 5784 5786 5787
5624 5621 5618 5614 5610 5606 5602 5599 5594 5590 5586 5581 5576 5572 5568 5564 5560 5556 5552 5549 5547 5545 5543 5541 5540 5540 5539 5537 5535 5534 5532 5530 5529 5528 5530 5534 5540 5545 5550 5556 5562 5568 5574 5580 5587 5591 5594 5605 5616 5623 5630 5639 5646 5651 5661 5670 5674 5681 5692 5698 5703 5709 5714 5719 5722 5723 5725 5728 5733 5736 5740 5744 5747 5749 5751 5754 5759 5765 5768 5769 5770 5773 5775 5777 5779 5780 5782 5783
5621 5619 5615 5612 5608 5604 5600 5596 5592 5587 5582 5578 5573 5569 5565 5561 5557 5553 5550 5547 5545 5543 5541 5539 5538 5537 5536 5534 5533 5531 5529 5528 5527 5526 5528 5532 5538 5543 5548 5554 5559 5565 5570 5575 5581 5585 5591 5603 5612 5618 5626 5634 5640 5648 5659 5665 5670 5680 5690 5695 5700 5706 5710 5715 5718 5719 5721 5725 5730 5733 5737 5740 5743 5746 5748 5754 5760 5763 5764 5767 5769 5771 5773 5774 5776 5777 5778 5780
5619 5616 5613 5609 5605 5601 5597 5593 5589 5584 5580 5575 5571 5567 5563 5559 5555 5552 5548 5546 5543 5541 5539 5537 5536 5535 5533 5532 5530 5528 5527 5525 5524 5524 5526 5531 5537 5542 5547 5552 5557 5562 5566 5572 5578 5583 5591 5602 5610 5617 5623 5629 5636 5646 5655 5660 5668 5678 5685 5690 5696 5701 5706 5710 5713 5715 5718 5723 5726 5729 5733 5737 5740 5742 5745 5753 5758 5759 5762 5765 5767 5769 5770 5772 5773 5774 5775 5776
5617 5614 5611 5607 5604 5599 5595 5591 5586 5582 5577 5572 5569 5565 5561 5557 5553 5550 5547 5544 5542 5540 5538 5536 5534 5533 5531 5530 5528 5526 5524 5523 5522 5522 5525 5530 5536 5541 5547 5552 5557 5563 5568 5574 5578 5582 5591 5600 5607 5613 5618 5625 5635 5644 5650 5656 5665 5674 5680 5686 5692 5696 5700 5704 5707 5711 5715 5719 5720 5724 5730 5734 5736 5739 5745 5752 5756 5757 5761 5763 5764 5767 5768 5770 5771 5772 5773 5774
5615 5612 5609 5606 5602 5598 5593 5589 5584 5580 5575 5571 5567 5564 5559 5555 5551 5548 5545 5543 5540 5538 5536 5534 5532 5531 5529 5528 5527 5524 5522 5521 5520 5521 5524 5529 5534 5539 5544 5550 5556 5563 5569 5574 5577 5582 5590 5597 5603 5610 5617 5626 5636 5644 5650 5658 5664 5671 5678 5684 5689 5693 5697 5702 5705 5709 5713 5715 5717 5722 5727 5730 5733 5738 5745 5751 5753 5755 5758 5760 5762 5765 5766 5768 5769 5771 5772 5773
5614 5611 5608 5605 5601 5597 5592 5588 5583 5579 5574 5570 5567 5562 5558 5553 5549 5546 5543 5541 5538 5536 5534 5532 5531 5529 5528 5526 5525 5523 5521 5520 5519 5520 5524 5529 5533 5538 5544 5549 5555 5562 5567 5572 5576 5582 5591 5598 5603 5610 5619 5627 5635 5641 5649 5657 5663 5669 5675 5680 5685 5691 5696 5699 5703 5705 5709 5711 5714 5720 5724 5726 5730 5737 5744 5748 5749 5753 5756 5758 5760 5763 5765 5767 5768 5770 5771 5772
5613 5610 5607 5603 5600 5596 5591 5587 5583 5578 5573 5569 5566 5562 5557 5552 5548 5544 5541 5539 5536 5534 5532 5530 5529 5528 5526 5525 5523 5522 5520 5519 5519 5521 5524 5529 5534 5539 5544 5549 5554 5560 5566 5572 5577 5583 5591 5597 5603 5609 5617 5625 5634 5639 5645 5654 5662 5668 5672 5677 5683 5687 5691 5696 5699 5702 5705 5708 5713 5719 5721 5723 5729 5737 5744 5746 5748 5751 5754 5756 5759 5761 5763 5765 5767 5768 5770 5771
5612 5609 5605 5602 5598 5594 5590 5586 5582 5577 5573 5569 5565 5561 5557 5552 5548 5543 5540 5537 5535 5533 5531 5530 5528 5527 5526 5524 5522 5521 5519 5518 5518 5521 5524 5530 5535 5539 5544 5549 5553 5559 5565 5572 5578 5585 5592 5597 5602 5608 5615 5622 5630 5636 5644 5652 5658 5665 5671 5675 5679 5681 5686 5692 5697 5700 5704 5709 5714 5717 5719 5722 5729 5737 5742 5744 5746 5750 5752 5755 5757 5759 5762 5764 5765 5767 5768 5769
5610 5607 5604 5601 5597 5593 5589 5585 5581 5576 5572 5568 5565 5561 5557 5552 5548 5543 5540 5537 5534 5532 5530 5529 5527 5526 5525 5524 5522 5521 5519 5518 5519 5522 5525 5530 5535 5538 5543 5548 5553 5558 5564 5571 5577 5585 5592 5596 5600 5607 5615 5621 5626 5633 5642 5648 5652 5660 5667 5671 5675 5679 5685 5690 5694 5697 5702 5708 5711 5714 5717 5721 5726 5733 5739 5741 5744 5748 5751 5753 5756 5758 5760 5762 5763 5764 5765 5766
5609 5606 5603 5600 5596 5592 5588 5584 5580 5576 5572 5568 5565 5561 5557 5552 5548 5544 5540 5536 5534 5532 5530 5528 5527 5525 5525 5524 5523 5522 5521 5520 5521 5523 5527 5532 5536 5539 5544 5549 5553 5559 5565 5572 5579 5585 5591 5595 5600 5607 5615 5621 5625 5632 5639 5643 5648 5656 5662 5667 5674 5680 5685 5690 5693 5697 5702 5706 5709 5711 5714 5718 5723 5730 5737 5740 5743 5746 5748 5751 5753 5756 5758 5759 5761 5762 5762 5764
5608 5605 5602 5599 5596 5592 5588 5584 5579 5576 5572 5568 5565 5561 5557 5553 5548 5544 5540 5536 5534 5532 5530 5528 5526 5525 5524 5523 5523 5522 5521 5521 5524 5526 5530 5534 5537 5540 5545 5550 5554 5560 5566 5573 5579 5585 5590 5595 5600 5607 5613 5618 5625 5632 5637 5641 5648 5654 5658 5665 5672 5678 5684 5689 5692 5696 5701 5705 5707 5709 5712 5718 5723 5730 5736 5738 5740 5742 5745 5748 5751 5753 5755 5756 5758 5759 5760 5762
5608 5605 5602 5599 5595 5591 5588 5584 5579 5575 5572 5569 5565 5562 5558 5554 5550 5545 5541 5537 5534 5532 5530 5528 5526 5524 5523 5523 5523 5522 5522 5523 5525 5528 5531 5535 5538 5541 5545 5550 5555 5561 5567 5573 5579 5584 5590 5595 5601 5607 5612 5617 5625 5632 5637 5642 5649 5653 5657 5664 5670 5675 5681 5686 5688 5693 5698 5702 5705 5707 5712 5718 5723 5729 5733 5735 5737 5739 5742 5745 5748 5750 5753 5754 5755 5757 5758 5759
5607 5605 5602 5598 5595 5591 5588 5584 5580 5576 5573 5569 5566 5562 5559 5555 5551 5547 5543 5539 5536 5533 5530 5528 5526 5524 5523 5523 5523 5522 5523 5525 5527 5530 5533 5537 5540 5543 5547 5552 5557 5562 5568 5574 5580 5585 5590 5596 5601 5607 5613 5618 5625 5631 5637 5643 5648 5653 5658 5664 5668 5673 5678 5682 5686 5691 5696 5700 5702 5706 5711 5717 5722 5727 5730 5731 5733 5737 5740 5743 5746 5748 5750 5752 5753 5755 5756 5758
5607 5605 5602 5598 5594 5591 5587 5584 5580 5576 5573 5570 5566 5563 5560 5556 5553 5549 5546 5542 5538 5535 5532 5529 5526 5524 5524 5524 5523 5522 5524 5527 5529 5532 5535 5539 5542 5545 5549 5554 5559 5564 5570 5576 5581 5586 5591 5596 5600 5606 5614 5620 5625 5630 5635 5640 5645 5651 5657 5662 5666 5670 5675 5681 5685 5689 5694 5698 5702 5706 5712 5717 5721 5724 5726 5729 5732 5735 5737 5740 5743 5746 5748 5750 5752 5753 5755 5757
5605 5603 5601 5598 5594 5590 5587 5584 5581 5577 5574 5571 5567 5564 5561 5558 5555 5551 5548 5544 5540 5537 5534 5531 5528 5526 5525 5524 5523 5524 5526 5529 5533 5536 5538 5542 5544 5547 5551 5555 5561 5566 5572 5577 5582 5587 5592 5596 5599 5605 5610 5616 5620 5625 5629 5635 5642 5649 5655 5660 5665 5669 5674 5679 5682 5686 5692 5697 5701 5707 5712 5716 5719 5722 5724 5727 5730 5732 5735 5738 5741 5744 5746 5748 5750 5752 5754 5755
5605 5603 5601 5598 5594 5591 5587 5584 5581 5578 5576 5573 5569 5566 5563 5560 5557 5553 5550 5547 5544 5540 5537 5534 5531 5529 5527 5526 5526 5528 5530 5533 5536 5539 5541 5544 5547 5549 5553 5558 5564 5569 5572 5577 5582 5587 5592 5597 5601 5605 5609 5614 5620 5625 5631 5637 5643 5649 5654 5659 5664 5669 5674 5678 5681 5686 5692 5695 5699 5706 5711 5714 5718 5720 5722 5725 5727 5730 5733 5736 5739 5742 5744 5746 5749 5751 5752 5754
5605 5602 5600 5597 5594 5591 5588 5584 5581 5579 5577 5574 5571 5568 5565 5562 5559 5556 5553 5550 5547 5544 5541 5538 5535 5533 5531 5531 5531 5533 5535 5537 5539 5541 5544 5548 5549 5552 5557 5561 5566 5570 5573 5577 5582 5588 5594 5599 5603 5608 5613 5619 5625 5630 5635 5639 5642 5646 5651 5657 5662 5668 5672 5677 5681 5687 5691 5694 5699 5705 5710 5713 5716 5719 5721 5723 5725 5728 5731 5734 5737 5739 5742 5745 5747 5749 5751 5752
5604 5602 5599 5597 5595 5592 5588 5585 5582 5579 5577 5575 5572 5570 5567 5564 5561 5558 5556 5553 5551 5547 5545 5542 5540 5538 5537 5536 5537 5538 5539 5541 5543 5545 5548 5551 5553 5556 5560 5563 5567 5572 5575 5580 5585 5590 5595 5600 5604 5609 5615 5621 5625 5627 5631 5636 5640 5644 5649 5654 5659 5665 5669 5675 5680 5684 5689 5693 5699 5704 5709 5712 5715 5717 5719 5721 5724 5726 5729 5732 5734 5738 5741 5743 5745 5747 5749 5751
5603 5600 5598 5596 5594 5592 5588 5585 5583 5580 5578 5576 5574 5571 5568 5566 5563 5560 5558 5556 5554 5551 5548 5546 5544 5543 5542 5541 5541 5542 5543 5545 5546 5548 5551 5554 5556 5559 5563 5566 5569 5573 5577 5582 5587 5592 5597 5601 5605 5609 5614 5618 5622 5626 5631 5636 5640 5646 5649 5653 5658 5662 5667 5673 5677 5681 5686 5692 5697 5702 5707 5710 5712 5714 5717 5719 5722 5725 5728 5730 5733 5736 5739 5741 5743 5745 5747 5750
5603 5600 5598 5596 5594 5591 5589 5586 5584 5581 5579 5577 5575 5572 5569 5567 5564 5562 5559 5558 5556 5554 5552 5550 5548 5547 5547 5546 5545 5545 5547 5548 5549 5551 5554 5557 5560 5563 5566 5569 5571 5575 5579 5584 5588 5593 5598 5602 5605 5610 5614 5616 5620 5627 5633 5637 5641 5646 5650 5655 5659 5662 5666 5671 5675 5680 5685 5690 5694 5699 5704 5707 5710 5712 5715 5718 5721 5724 5727 5729 5732 5735 5737 5739 5742 5744 5746 5748
5603 5601 5598 5596 5594 5591 5589 5587 5585 5582 5580 5578 5575 5573 5571 5568 5565 5563 5561 5560 5558 5556 5555 5553 5552 5551 5550 5550 5549 5548 5549 5550 5551 5553 5556 5558 5561 5564 5569 5572 5575 5578 5581 5586 5590 5594 5598 5602 5606 5610 5613 5617 5622 5627 5632 5637 5642 5646 5650 5654 5659 5663 5667 5671 5675 5680 5685 5689 5693 5698 5702 5705 5708 5711 5714 5716 5719 5723 5726 5729 5731 5733 5735 5738 5740 5742 5744 5746
5602 5600 5598 5596 5594 5592 5590 5587 5585 5583 5581 5579 5577 5575 5572 5570 5568 5565 5563 5562 5560 5558 5557 5556 5555 5554 5553 5553 5553 5551 5551 5552 5553 5555 5557 5559 5561 5565 5569 5574 5578 5581 5584 5588 5592 5596 5599 5602 5606 5610 5614 5618 5623 5626 5631 5636 5641 5646 5649 5653 5657 5662 5666 5671 5675 5680 5684 5689 5693 5697 5701 5704 5707 5710 5713 5716 5719 5721 5724 5727 5730 5732 5734 5736 5738 5741 5742 5743
5601 5599 5597 5595 5593 5592 5590 5588 5586 5583 5581 5579 5577 5576 5573 5571 5569 5567 5566 5564 5562 5561 5559 5558 5557 5557 5556 5556 5556 5555 5554 5555 5555 5557 5559 5561 5563 5567 5570 5574 5578 5582 5585 5589 5593 5597 5600 5604 5608 5612 5616 5619 5623 5627 5631 5635 5639 5643 5647 5652 5656 5661 5665 5670 5674 5679 5684 5688 5692 5696 5700 5703 5706 5709 5712 5715 5718 5720 5723 5726 5728 5730 5732 5734 5736 5738 5739 5740